• In Portugal
  • List of Countries
  • For 7 days
  • Water Temperature
  • Satellite Maps
  • Weather Map
  • Weather Widgets
  • user-avatar
    Login

    Hourly Weather Megri

    Today, 23 January, Tuesday

    Time Temperature Precipitation Wind Pressure Humidity
    00:00 -2°C° 0 mm 3 mps 616 mmHg 42%
    01:00 -2°C° 0 mm 2 mps 616 mmHg 43%
    02:00 -3°C° 0 mm 2 mps 616 mmHg 45%
    03:00 -3°C° 0 mm 2 mps 616 mmHg 50%
    04:00 -4°C° 0 mm 2 mps 616 mmHg 50%
    05:00 -4°C° 0 mm 2 mps 616 mmHg 51%
    06:00 -4°C° 0 mm 2 mps 616 mmHg 52%
    07:00 -3°C° 0 mm 2 mps 616 mmHg 51%
    08:00 -2°C° 0 mm 2 mps 617 mmHg 50%
    09:00 -1°C° 0 mm 2 mps 617 mmHg 50%
    10:00 0°C° 0 mm 3 mps 617 mmHg 47%
    11:00 +1°C° 0 mm 3 mps 617 mmHg 45%
    12:00 +2°C° 0 mm 3 mps 617 mmHg 43%
    13:00 +2°C° 0 mm 3 mps 617 mmHg 43%
    14:00 +3°C° 0 mm 3 mps 617 mmHg 44%
    15:00 +3°C° 0 mm 3 mps 617 mmHg 45%
    16:00 +2°C° 0 mm 2 mps 616 mmHg 46%
    17:00 +1°C° 0 mm 2 mps 616 mmHg 48%
    18:00 0°C° 0 mm 1 mps 616 mmHg 49%
    19:00 0°C° 0 mm 1 mps 616 mmHg 49%
    20:00 0°C° 0 mm 1 mps 616 mmHg 49%
    21:00 0°C° 0 mm 1 mps 616 mmHg 49%
    22:00 0°C° 0 mm 1 mps 616 mmHg 50%
    23:00 +1°C° 0 mm 1 mps 617 mmHg 50%

    Tomorrow, 24 January, Wednesday

    Time Temperature Precipitation Wind Pressure Humidity
    00:00 -1°C° 0 mm 2 mps 617 mmHg 51%
    01:00 +1°C° 0.1 mm 1 mps 617 mmHg 55%
    02:00 0°C° 0.1 mm 1 mps 617 mmHg 58%
    03:00 0°C° 0.1 mm 1 mps 617 mmHg 62%
    04:00 0°C° 0 mm 1 mps 617 mmHg 63%
    05:00 -1°C° 0 mm 1 mps 617 mmHg 65%
    06:00 -1°C° 0 mm 1 mps 617 mmHg 66%
    07:00 0°C° 0 mm 1 mps 618 mmHg 65%
    08:00 0°C° 0 mm 1 mps 619 mmHg 64%
    09:00 +1°C° 0 mm 1 mps 619 mmHg 63%
    10:00 +1°C° 0 mm 2 mps 620 mmHg 62%
    11:00 +2°C° 0 mm 2 mps 620 mmHg 60%
    12:00 +3°C° 0 mm 2 mps 620 mmHg 59%
    13:00 +3°C° 0 mm 2 mps 620 mmHg 59%
    14:00 +3°C° 0 mm 2 mps 620 mmHg 58%
    15:00 +4°C° 0 mm 1 mps 620 mmHg 58%
    16:00 +3°C° 0 mm 1 mps 620 mmHg 60%
    17:00 +2°C° 0 mm 1 mps 620 mmHg 63%
    18:00 +1°C° 0 mm 1 mps 620 mmHg 65%
    19:00 +1°C° 0 mm 1 mps 620 mmHg 66%
    20:00 0°C° 0 mm 1 mps 620 mmHg 67%
    21:00 0°C° 0 mm 1 mps 620 mmHg 68%
    22:00 0°C° 0 mm 1 mps 620 mmHg 69%
    23:00 0°C° 0 mm 1 mps 620 mmHg 71%

    Day after tomorrow, 25 January, Thursday

    Time Temperature Precipitation Wind Pressure Humidity
    00:00 0°C° 0 mm 1 mps 620 mmHg 72%
    01:00 0°C° 0.1 mm 1 mps 620 mmHg 74%
    02:00 0°C° 0.1 mm 1 mps 620 mmHg 76%
    03:00 0°C° 0.1 mm 1 mps 620 mmHg 78%
    04:00 0°C° 0.1 mm 1 mps 620 mmHg 79%
    05:00 -1°C° 0.1 mm 1 mps 620 mmHg 80%
    06:00 -1°C° 0.1 mm 1 mps 620 mmHg 81%
    07:00 0°C° 0.1 mm 1 mps 621 mmHg 80%
    08:00 -2°C° 0.1 mm 2 mps 621 mmHg 78%
    09:00 -1°C° 0.1 mm 2 mps 622 mmHg 76%
    10:00 +1°C° 0.1 mm 2 mps 622 mmHg 74%
    11:00 +1°C° 0.1 mm 2 mps 622 mmHg 71%
    12:00 +2°C° 0.1 mm 2 mps 622 mmHg 68%
    13:00 +2°C° 0.1 mm 2 mps 621 mmHg 68%
    14:00 +3°C° 0.1 mm 2 mps 621 mmHg 67%
    15:00 +3°C° 0.1 mm 2 mps 621 mmHg 66%
    16:00 +2°C° 0.1 mm 2 mps 621 mmHg 70%
    17:00 +1°C° 0.1 mm 2 mps 621 mmHg 74%
    18:00 -1°C° 0.1 mm 2 mps 621 mmHg 77%
    19:00 -1°C° 0 mm 2 mps 621 mmHg 79%
    20:00 -2°C° 0 mm 2 mps 621 mmHg 81%
    21:00 -3°C° 0 mm 2 mps 621 mmHg 82%
    22:00 -4°C° 0.1 mm 3 mps 621 mmHg 82%
    23:00 -4°C° 0.1 mm 3 mps 620 mmHg 82%

    26 January, Friday

    Time Temperature Precipitation Wind Pressure Humidity
    00:00 -4°C° 0.1 mm 3 mps 620 mmHg 82%
    01:00 -4°C° 0.5 mm 3 mps 620 mmHg 83%
    02:00 -4°C° 0.5 mm 3 mps 620 mmHg 84%
    03:00 -4°C° 0.5 mm 3 mps 620 mmHg 85%
    04:00 -4°C° 0.6 mm 3 mps 620 mmHg 86%
    05:00 -4°C° 0.6 mm 3 mps 620 mmHg 86%
    06:00 -4°C° 0.6 mm 3 mps 620 mmHg 86%
    07:00 -4°C° 0.5 mm 3 mps 620 mmHg 86%
    08:00 -4°C° 0.5 mm 3 mps 620 mmHg 85%
    09:00 -4°C° 0.5 mm 3 mps 620 mmHg 85%
    10:00 -2°C° 0.8 mm 3 mps 619 mmHg 84%
    11:00 -2°C° 0.8 mm 3 mps 619 mmHg 84%
    12:00 -3°C° 0.8 mm 4 mps 619 mmHg 84%
    13:00 -2°C° 1 mm 3 mps 619 mmHg 85%
    14:00 -2°C° 1 mm 3 mps 618 mmHg 85%
    15:00 -4°C° 1 mm 3 mps 618 mmHg 86%
    16:00 -4°C° 0.4 mm 3 mps 618 mmHg 86%
    17:00 -4°C° 0.4 mm 3 mps 618 mmHg 86%
    18:00 -4°C° 0.4 mm 2 mps 618 mmHg 86%
    19:00 -4°C° 0.3 mm 2 mps 618 mmHg 87%
    20:00 -4°C° 0.3 mm 2 mps 619 mmHg 87%
    21:00 -4°C° 0.3 mm 2 mps 619 mmHg 87%
    22:00 -4°C° 0.4 mm 2 mps 619 mmHg 87%
    23:00 -4°C° 0.4 mm 2 mps 619 mmHg 88%

    27 January, Saturday

    Time Temperature Precipitation Wind Pressure Humidity
    00:00 -4°C° 0.4 mm 2 mps 619 mmHg 88%
    01:00 -4°C° 0.4 mm 2 mps 619 mmHg 88%
    02:00 -4°C° 0.4 mm 2 mps 618 mmHg 89%
    03:00 -5°C° 0.4 mm 2 mps 618 mmHg 89%
    04:00 -5°C° 0.3 mm 2 mps 618 mmHg 89%
    05:00 -5°C° 0.3 mm 2 mps 618 mmHg 89%
    06:00 -5°C° 0.3 mm 2 mps 618 mmHg 89%
    07:00 -6°C° 0.1 mm 3 mps 619 mmHg 88%
    08:00 -6°C° 0.1 mm 3 mps 619 mmHg 87%
    09:00 -5°C° 0.1 mm 3 mps 619 mmHg 85%
    10:00 -5°C° 0.1 mm 3 mps 619 mmHg 84%
    11:00 -4°C° 0.1 mm 3 mps 619 mmHg 82%
    12:00 -4°C° 0.1 mm 3 mps 620 mmHg 81%
    13:00 -4°C° 0.1 mm 3 mps 620 mmHg 80%
    14:00 -4°C° 0.1 mm 3 mps 620 mmHg 79%
    15:00 -4°C° 0.1 mm 3 mps 620 mmHg 79%
    16:00 -5°C° 0.1 mm 3 mps 620 mmHg 81%
    17:00 -5°C° 0.1 mm 3 mps 620 mmHg 83%
    18:00 -6°C° 0.1 mm 3 mps 620 mmHg 85%
    19:00 -7°C° 0.1 mm 3 mps 620 mmHg 85%
    20:00 -7°C° 0.1 mm 3 mps 620 mmHg 85%
    21:00 -7°C° 0.1 mm 3 mps 621 mmHg 85%
    22:00 -6°C° 0.1 mm 2 mps 621 mmHg 85%
    23:00 -7°C° 0.1 mm 2 mps 621 mmHg 85%

    28 January, Sunday

    Time Temperature Precipitation Wind Pressure Humidity
    00:00 -7°C° 0.1 mm 2 mps 621 mmHg 85%
    01:00 -7°C° 0.1 mm 2 mps 621 mmHg 85%
    02:00 -7°C° 0.1 mm 2 mps 621 mmHg 85%
    03:00 -7°C° 0.1 mm 2 mps 622 mmHg 85%
    04:00 -8°C° 0.1 mm 2 mps 622 mmHg 85%
    05:00 -8°C° 0.1 mm 2 mps 622 mmHg 85%
    06:00 -8°C° 0.1 mm 2 mps 622 mmHg 85%
    07:00 -7°C° 0.1 mm 2 mps 623 mmHg 83%
    08:00 -7°C° 0.1 mm 2 mps 623 mmHg 81%
    09:00 -6°C° 0.1 mm 2 mps 624 mmHg 79%
    10:00 -5°C° 0 mm 2 mps 624 mmHg 76%
    11:00 -5°C° 0 mm 2 mps 624 mmHg 74%
    12:00 -4°C° 0 mm 2 mps 624 mmHg 71%
    13:00 -4°C° 0 mm 2 mps 624 mmHg 70%
    14:00 -3°C° 0 mm 2 mps 624 mmHg 70%
    15:00 -3°C° 0 mm 2 mps 624 mmHg 69%
    16:00 -4°C° 0 mm 2 mps 624 mmHg 72%
    17:00 -6°C° 0 mm 2 mps 623 mmHg 76%
    18:00 -7°C° 0 mm 2 mps 623 mmHg 79%
    19:00 -7°C° 0 mm 2 mps 623 mmHg 80%
    20:00 -7°C° 0 mm 1 mps 623 mmHg 81%
    21:00 -7°C° 0 mm 1 mps 623 mmHg 82%
    22:00 -7°C° 0 mm 1 mps 623 mmHg 81%
    23:00 -8°C° 0 mm 1 mps 623 mmHg 81%
    Show more